QPF
0.13 0.12 0.09 0.10 0.11 0.11 0.11 0.09 0.09 0.09 0.10 0.07 0.07 0.08 0.07 0.04 0.04 0.03 0.02 0.01 0.02 0.01 0.01 0.00 0.01 0.01 0.01 0.01 0.01 0.01 0.01 0.01 0.01 0.01 0.01 0.01 0.01 0.01 0.01 0.02 0.02 0.02 0.03
0.11 0.11 0.07 0.09 0.11 0.11 0.10 0.09 0.10 0.10 0.09 0.07 0.06 0.07 0.08 0.05 0.04 0.02 0.01 0.01 0.01 0.01 0.00 0.01 0.01 0.01 0.01 0.01 0.01 0.01 0.00 0.01 0.01 0.01 0.02 0.02 0.01 0.01 0.01 0.01 0.02 0.02 0.02
0.07 0.10 0.09 0.08 0.09 0.10 0.09 0.08 0.09 0.09 0.07 0.05 0.04 0.04 0.05 0.03 0.01 0.01 0.01 0.00 0.00 0.00 0.01 0.01 0.01 0.01 0.01 0.01 0.00 0.00 0.00 0.00 0.01 0.01 0.01 0.01 0.02 0.01 0.01 0.00 0.01 0.01 0.02
0.06 0.07 0.07 0.07 0.07 0.09 0.10 0.10 0.07 0.06 0.05 0.03 0.03 0.03 0.03 0.02 0.02 0.01 0.01 0.01 0.01 0.00 0.00 0.00 0.00 0.00 0.00 0.00 0.00 0.00 0.00 0.00 0.00 0.00 0.00 0.00 0.01 0.01 0.01 0.01 0.01 0.00 0.01
0.04 0.05 0.05 0.07 0.06 0.07 0.08 0.07 0.05 0.04 0.03 0.02 0.02 0.03 0.02 0.02 0.01 0.01 0.01 0.01 0.01 0.00 0.00 0.00 0.00 0.00 0.00 0.00 0.00 0.00 0.00 0.00 0.00 0.00 0.00 0.00 0.00 0.00 0.00 0.00 0.00 0.00 0.00
0.02 0.03 0.04 0.05 0.05 0.04 0.05 0.05 0.03 0.02 0.02 0.02 0.01 0.02 0.02 0.02 0.01 0.01 0.01 0.01 0.01 0.00 0.00 0.00 0.00 0.00 0.00 0.00 0.00 0.00 0.00 0.00 0.00 0.00 0.00 0.00 0.00 0.00 0.00 0.00 0.00 0.00 0.00
0.01 0.01 0.02 0.03 0.03 0.02 0.03 0.02 0.02 0.02 0.01 0.01 0.01 0.01 0.02 0.02 0.01 0.01 0.01 0.01 0.00 0.00 0.00 0.00 0.00 0.00 0.00 0.00 0.00 0.00 0.00 0.00 0.00 0.00 0.00 0.00 0.00 0.00 0.00 0.00 0.00 0.00 0.00
0.00 0.00 0.01 0.01 0.01 0.01 0.01 0.01 0.01 0.01 0.01 0.01 0.01 0.01 0.01 0.01 0.00 0.01 0.00 0.00 0.00 0.00 0.00 0.00 0.00 0.00 0.00 0.00 0.00 0.00 0.00 0.00 0.00 0.00 0.00 0.00 0.00 0.00 0.00 0.00 0.00 0.00 0.00
0.00 0.00 0.00 0.00 0.00 0.01 0.00 0.00 0.00 0.01 0.01 0.00 0.01 0.01 0.01 0.01 0.00 0.00 0.00 0.00 0.00 0.00 0.00 0.00 0.00 0.00 0.00 0.00 0.00 0.00 0.00 0.00 0.00 0.00 0.00 0.00 0.00 0.00 0.00 0.00 0.00 0.01 0.00
0.00 0.00 0.00 0.00 0.00 0.00 0.00 0.00 0.00 0.00 0.01 0.00 0.00 0.00 0.00 0.00 0.00 0.00 0.00 0.00 0.00 0.00 0.00 0.00 0.00 0.00 0.00 0.00 0.00 0.00 0.00 0.00 0.00 0.00 0.00 0.00 0.00 0.00 0.00 0.00 0.00 0.00 0.00
0.00 0.00 0.00 0.00 0.00 0.00 0.00 0.00 0.00 0.00 0.00 0.00 0.00 0.00 0.00 0.00 0.00 0.00 0.00 0.00 0.00 0.00 0.00 0.00 0.00 0.00 0.00 0.00 0.00 0.00 0.00 0.00 0.00 0.00 0.00 0.00 0.00 0.00 0.00 0.00 0.00 0.01 0.01
0.00 0.00 0.00 0.00 0.00 0.00 0.00 0.00 0.00 0.00 0.00 0.00 0.00 0.00 0.00 0.00 0.00 0.00 0.00 0.00 0.00 0.00 0.00 0.00 0.00 0.00 0.00 0.00 0.00 0.00 0.00 0.00 0.00 0.00 0.00 0.00 0.00 0.00 0.00 0.00 0.00 0.01 0.01
0.00 0.00 0.00 0.00 0.00 0.00 0.00 0.00 0.00 0.00 0.00 0.00 0.00 0.00 0.00 0.00 0.00 0.00 0.00 0.00 0.00 0.00 0.00 0.00 0.00 0.00 0.00 0.00 0.00 0.00 0.00 0.00 0.00 0.00 0.00 0.00 0.00 0.00 0.00 0.00 0.00 0.00 0.00
0.00 0.00 0.00 0.00 0.00 0.00 0.00 0.00 0.00 0.00 0.00 0.00 0.00 0.00 0.00 0.00 0.00 0.00 0.00 0.00 0.00 0.00 0.00 0.00 0.00 0.00 0.00 0.00 0.00 0.00 0.00 0.00 0.00 0.00 0.00 0.00 0.00 0.00 0.00 0.00 0.00 0.00 0.00
0.00 0.00 0.00 0.00 0.00 0.00 0.00 0.00 0.00 0.00 0.01 0.00 0.00 0.00 0.00 0.00 0.00 0.00 0.00 0.00 0.00 0.00 0.00 0.00 0.00 0.00 0.00 0.00 0.00 0.00 0.00 0.00 0.00 0.00 0.00 0.00 0.00 0.00 0.00 0.00 0.00 0.00 0.00
0.00 0.00 0.00 0.00 0.00 0.00 0.00 0.01 0.01 0.02 0.02 0.02 0.01 0.00 0.00 0.00 0.00 0.00 0.00 0.00 0.00 0.00 0.00 0.00 0.00 0.00 0.00 0.00 0.00 0.00 0.00 0.00 0.00 0.00 0.00 0.00 0.00 0.00 0.00 0.00 0.00 0.00 0.00
0.00 0.00 0.00 0.00 0.00 0.00 0.00 0.01 0.02 0.02 0.02 0.02 0.03 0.02 0.01 0.01 0.00 0.00 0.00 0.00 0.00 0.00 0.00 0.00 0.00 0.00 0.00 0.00 0.00 0.00 0.00 0.00 0.00 0.00 0.00 0.00 0.00 0.00 0.00 0.00 0.00 0.00 0.00
0.01 0.00 0.00 0.00 0.00 0.00 0.00 0.01 0.01 0.01 0.02 0.02 0.03 0.03 0.03 0.02 0.01 0.01 0.01 0.00 0.00 0.00 0.00 0.00 0.00 0.00 0.00 0.00 0.00 0.00 0.00 0.00 0.00 0.00 0.00 0.00 0.00 0.00 0.00 0.00 0.00 0.00 0.00
0.01 0.01 0.01 0.01 0.01 0.01 0.01 0.01 0.01 0.01 0.01 0.02 0.02 0.02 0.02 0.02 0.01 0.01 0.01 0.01 0.01 0.01 0.00 0.00 0.00 0.00 0.00 0.00 0.00 0.00 0.00 0.00 0.00 0.00 0.00 0.00 0.00 0.00 0.00 0.00 0.00 0.00 0.00
0.02 0.02 0.02 0.02 0.01 0.01 0.01 0.01 0.01 0.01 0.01 0.02 0.02 0.02 0.02 0.01 0.01 0.01 0.01 0.01 0.01 0.00 0.00 0.00 0.00 0.00 0.00 0.01 0.01 0.01 0.00 0.00 0.00 0.00 0.00 0.00 0.00 0.00 0.00 0.00 0.01 0.00 0.01
0.02 0.02 0.02 0.02 0.02 0.01 0.01 0.01 0.01 0.01 0.02 0.02 0.02 0.02 0.01 0.01 0.01 0.01 0.01 0.01 0.01 0.01 0.01 0.00 0.00 0.01 0.01 0.01 0.01 0.00 0.00 0.00 0.00 0.00 0.00 0.00 0.00 0.00 0.00 0.00 0.00 0.00 0.01
0.02 0.02 0.02 0.01 0.01 0.01 0.01 0.01 0.02 0.02 0.02 0.03 0.02 0.02 0.02 0.02 0.01 0.01 0.01 0.01 0.01 0.01 0.01 0.01 0.01 0.01 0.01 0.00 0.01 0.01 0.00 0.00 0.00 0.00 0.00 0.00 0.00 0.00 0.00 0.00 0.00 0.00 0.00
0.02 0.02 0.02 0.02 0.02 0.01 0.01 0.02 0.02 0.03 0.02 0.02 0.02 0.02 0.02 0.02 0.02 0.01 0.01 0.01 0.01 0.01 0.01 0.01 0.01 0.01 0.01 0.01 0.01 0.01 0.01 0.01 0.01 0.00 0.00 0.00 0.00 0.00 0.00 0.00 0.00 0.00 0.00
0.02 0.01 0.01 0.02 0.02 0.02 0.02 0.02 0.03 0.03 0.02 0.02 0.02 0.02 0.02 0.02 0.02 0.01 0.01 0.01 0.01 0.02 0.02 0.02 0.02 0.02 0.02 0.01 0.02 0.02 0.02 0.01 0.01 0.01 0.01 0.01 0.01 0.01 0.01 0.01 0.00 0.00 0.00
0.01 0.01 0.01 0.02 0.02 0.02 0.02 0.03 0.03 0.03 0.03 0.03 0.03 0.03 0.03 0.03 0.02 0.02 0.02 0.02 0.02 0.02 0.02 0.02 0.02 0.02 0.02 0.03 0.03 0.02 0.02 0.02 0.01 0.01 0.01 0.01 0.01 0.01 0.01 0.02 0.02 0.02 0.02
0.00 0.01 0.01 0.02 0.02 0.02 0.02 0.02 0.02 0.03 0.03 0.04 0.04 0.05 0.05 0.05 0.04 0.04 0.03 0.03 0.02 0.02 0.02 0.02 0.01 0.01 0.01 0.01 0.01 0.01 0.01 0.01 0.00 0.00 0.00 0.01 0.01 0.02 0.02 0.03 0.03 0.03 0.03
MSLP
1013.27 1013.38 1013.44 1013.50 1013.57 1013.70 1013.90 1014.19 1014.55 1014.98 1015.43 1015.88 1016.31 1016.68 1017.01 1017.29 1017.54 1017.78 1018.02 1018.27 1018.52 1018.76 1018.99 1019.19 1019.36 1019.49 1019.59 1019.66 1019.72 1019.77 1019.81 1019.84 1019.85 1019.84 1019.80 1019.73 1019.64 1019.53 1019.40 1019.28 1019.15 1019.02 1018.89
1013.13 1013.29 1013.39 1013.46 1013.53 1013.65 1013.84 1014.11 1014.48 1014.92 1015.39 1015.87 1016.31 1016.70 1017.02 1017.29 1017.51 1017.72 1017.94 1018.17 1018.44 1018.72 1019.00 1019.27 1019.52 1019.72 1019.87 1019.98 1020.05 1020.09 1020.11 1020.10 1020.07 1020.03 1019.96 1019.87 1019.76 1019.63 1019.47 1019.31 1019.12 1018.93 1018.74
1012.88 1013.10 1013.26 1013.37 1013.46 1013.59 1013.78 1014.05 1014.43 1014.88 1015.37 1015.87 1016.33 1016.73 1017.05 1017.30 1017.50 1017.68 1017.87 1018.09 1018.35 1018.66 1018.98 1019.31 1019.61 1019.88 1020.08 1020.22 1020.30 1020.34 1020.33 1020.29 1020.24 1020.17 1020.09 1019.99 1019.87 1019.73 1019.56 1019.37 1019.15 1018.92 1018.68
1012.52 1012.83 1013.06 1013.23 1013.36 1013.51 1013.71 1014.00 1014.39 1014.85 1015.37 1015.89 1016.37 1016.78 1017.11 1017.35 1017.53 1017.68 1017.84 1018.04 1018.29 1018.59 1018.94 1019.30 1019.65 1019.95 1020.18 1020.35 1020.44 1020.47 1020.46 1020.41 1020.34 1020.26 1020.17 1020.07 1019.96 1019.82 1019.66 1019.46 1019.23 1018.98 1018.72
1012.08 1012.47 1012.79 1013.03 1013.23 1013.42 1013.65 1013.96 1014.36 1014.84 1015.36 1015.90 1016.40 1016.82 1017.15 1017.39 1017.56 1017.69 1017.83 1018.01 1018.24 1018.54 1018.88 1019.25 1019.61 1019.93 1020.18 1020.36 1020.46 1020.50 1020.47 1020.42 1020.35 1020.28 1020.20 1020.12 1020.02 1019.90 1019.76 1019.57 1019.35 1019.10 1018.83
1011.59 1012.07 1012.47 1012.79 1013.06 1013.30 1013.57 1013.90 1014.31 1014.80 1015.33 1015.88 1016.38 1016.82 1017.15 1017.40 1017.57 1017.69 1017.82 1017.98 1018.19 1018.47 1018.80 1019.15 1019.51 1019.82 1020.08 1020.26 1020.37 1020.40 1020.39 1020.35 1020.29 1020.23 1020.18 1020.12 1020.05 1019.96 1019.84 1019.68 1019.48 1019.25 1018.99
1011.09 1011.64 1012.12 1012.52 1012.85 1013.14 1013.45 1013.80 1014.22 1014.71 1015.24 1015.78 1016.29 1016.73 1017.08 1017.33 1017.51 1017.65 1017.77 1017.92 1018.12 1018.37 1018.68 1019.01 1019.34 1019.64 1019.89 1020.07 1020.17 1020.22 1020.22 1020.20 1020.17 1020.14 1020.11 1020.09 1020.05 1020.00 1019.90 1019.77 1019.59 1019.38 1019.14
1010.61 1011.20 1011.73 1012.19 1012.58 1012.93 1013.27 1013.64 1014.06 1014.54 1015.06 1015.59 1016.09 1016.54 1016.90 1017.17 1017.37 1017.52 1017.66 1017.81 1018.00 1018.24 1018.52 1018.83 1019.13 1019.41 1019.64 1019.81 1019.92 1019.98 1020.01 1020.01 1020.01 1020.01 1020.02 1020.03 1020.02 1019.99 1019.92 1019.81 1019.65 1019.46 1019.23
1010.15 1010.75 1011.31 1011.81 1012.24 1012.62 1012.99 1013.38 1013.81 1014.28 1014.78 1015.30 1015.79 1016.23 1016.61 1016.90 1017.13 1017.31 1017.48 1017.65 1017.85 1018.08 1018.34 1018.63 1018.90 1019.16 1019.37 1019.54 1019.65 1019.72 1019.77 1019.80 1019.83 1019.86 1019.90 1019.93 1019.95 1019.94 1019.89 1019.79 1019.65 1019.46 1019.25
1009.73 1010.30 1010.85 1011.36 1011.81 1012.22 1012.61 1013.01 1013.44 1013.90 1014.40 1014.90 1015.38 1015.82 1016.21 1016.53 1016.80 1017.02 1017.22 1017.43 1017.65 1017.89 1018.15 1018.41 1018.68 1018.91 1019.11 1019.27 1019.39 1019.47 1019.54 1019.59 1019.64 1019.70 1019.76 1019.80 1019.83 1019.83 1019.79 1019.70 1019.56 1019.38 1019.17
1009.34 1009.85 1010.36 1010.84 1011.29 1011.71 1012.11 1012.53 1012.96 1013.42 1013.91 1014.40 1014.88 1015.33 1015.73 1016.08 1016.39 1016.66 1016.91 1017.15 1017.41 1017.67 1017.94 1018.20 1018.46 1018.68 1018.87 1019.03 1019.15 1019.24 1019.32 1019.39 1019.45 1019.52 1019.58 1019.63 1019.66 1019.66 1019.62 1019.53 1019.40 1019.23 1019.02
1008.99 1009.41 1009.85 1010.28 1010.70 1011.11 1011.52 1011.95 1012.39 1012.86 1013.35 1013.84 1014.32 1014.78 1015.20 1015.58 1015.93 1016.24 1016.54 1016.83 1017.12 1017.41 1017.70 1017.97 1018.23 1018.45 1018.64 1018.80 1018.92 1019.01 1019.10 1019.17 1019.24 1019.30 1019.36 1019.40 1019.42 1019.41 1019.37 1019.29 1019.17 1019.01 1018.82
1008.72 1009.03 1009.36 1009.72 1010.09 1010.48 1010.88 1011.31 1011.76 1012.24 1012.73 1013.23 1013.71 1014.18 1014.62 1015.03 1015.41 1015.77 1016.11 1016.45 1016.78 1017.10 1017.41 1017.70 1017.96 1018.19 1018.38 1018.54 1018.66 1018.75 1018.83 1018.90 1018.96 1019.01 1019.06 1019.09 1019.10 1019.09 1019.05 1018.98 1018.88 1018.75 1018.59
1008.56 1008.74 1008.96 1009.22 1009.52 1009.86 1010.23 1010.65 1011.11 1011.59 1012.08 1012.58 1013.08 1013.55 1014.00 1014.43 1014.84 1015.23 1015.61 1015.99 1016.35 1016.70 1017.03 1017.34 1017.62 1017.85 1018.04 1018.20 1018.32 1018.41 1018.49 1018.54 1018.59 1018.63 1018.66 1018.68 1018.69 1018.68 1018.66 1018.61 1018.55 1018.46 1018.35
1008.56 1008.60 1008.70 1008.84 1009.05 1009.32 1009.65 1010.04 1010.48 1010.95 1011.44 1011.93 1012.42 1012.90 1013.36 1013.80 1014.22 1014.63 1015.03 1015.43 1015.82 1016.19 1016.54 1016.86 1017.15 1017.39 1017.60 1017.75 1017.88 1017.97 1018.03 1018.08 1018.12 1018.14 1018.17 1018.18 1018.19 1018.20 1018.20 1018.19 1018.17 1018.14 1018.08
1008.75 1008.67 1008.63 1008.66 1008.75 1008.93 1009.20 1009.53 1009.93 1010.37 1010.83 1011.31 1011.78 1012.24 1012.69 1013.13 1013.55 1013.97 1014.38 1014.79 1015.18 1015.57 1015.93 1016.26 1016.56 1016.81 1017.02 1017.19 1017.32 1017.41 1017.47 1017.52 1017.55 1017.57 1017.58 1017.60 1017.62 1017.64 1017.67 1017.70 1017.73 1017.76 1017.76
1009.14 1008.95 1008.79 1008.70 1008.68 1008.75 1008.92 1009.18 1009.51 1009.89 1010.31 1010.75 1011.19 1011.62 1012.05 1012.47 1012.88 1013.29 1013.69 1014.09 1014.49 1014.87 1015.24 1015.57 1015.87 1016.14 1016.35 1016.53 1016.67 1016.77 1016.84 1016.88 1016.91 1016.93 1016.95 1016.96 1016.99 1017.03 1017.09 1017.15 1017.23 1017.30 1017.35
1009.71 1009.44 1009.18 1008.97 1008.84 1008.80 1008.86 1009.02 1009.27 1009.57 1009.93 1010.31 1010.70 1011.10 1011.49 1011.88 1012.27 1012.66 1013.04 1013.42 1013.80 1014.17 1014.53 1014.86 1015.16 1015.43 1015.65 1015.84 1016.00 1016.11 1016.19 1016.24 1016.27 1016.29 1016.30 1016.32 1016.34 1016.39 1016.45 1016.53 1016.62 1016.72 1016.81
1010.39 1010.07 1009.75 1009.45 1009.22 1009.08 1009.03 1009.09 1009.24 1009.46 1009.74 1010.05 1010.39 1010.74 1011.10 1011.45 1011.81 1012.16 1012.51 1012.87 1013.22 1013.56 1013.89 1014.21 1014.51 1014.77 1015.01 1015.21 1015.38 1015.50 1015.59 1015.65 1015.68 1015.69 1015.69 1015.68 1015.69 1015.71 1015.76 1015.83 1015.91 1016.00 1016.08
1011.11 1010.78 1010.42 1010.07 1009.77 1009.55 1009.41 1009.38 1009.44 1009.58 1009.78 1010.03 1010.31 1010.61 1010.92 1011.24 1011.56 1011.87 1012.19 1012.50 1012.81 1013.12 1013.42 1013.72 1013.99 1014.25 1014.49 1014.70 1014.87 1015.01 1015.10 1015.15 1015.17 1015.16 1015.12 1015.08 1015.04 1015.01 1015.01 1015.03 1015.06 1015.12 1015.17
1011.78 1011.47 1011.12 1010.76 1010.43 1010.16 1009.97 1009.86 1009.85 1009.93 1010.07 1010.26 1010.49 1010.75 1011.02 1011.29 1011.56 1011.83 1012.10 1012.37 1012.63 1012.89 1013.15 1013.41 1013.67 1013.91 1014.14 1014.34 1014.51 1014.64 1014.72 1014.76 1014.74 1014.69 1014.60 1014.49 1014.37 1014.27 1014.18 1014.12 1014.08 1014.07 1014.06
1012.33 1012.09 1011.78 1011.45 1011.12 1010.85 1010.64 1010.50 1010.45 1010.48 1010.58 1010.73 1010.91 1011.13 1011.36 1011.59 1011.82 1012.04 1012.25 1012.46 1012.66 1012.87 1013.08 1013.29 1013.51 1013.73 1013.93 1014.12 1014.27 1014.38 1014.43 1014.43 1014.36 1014.24 1014.07 1013.86 1013.65 1013.44 1013.25 1013.08 1012.96 1012.86 1012.78
1012.75 1012.58 1012.35 1012.08 1011.81 1011.56 1011.37 1011.24 1011.18 1011.18 1011.25 1011.37 1011.52 1011.70 1011.88 1012.07 1012.24 1012.40 1012.55 1012.70 1012.84 1012.98 1013.13 1013.29 1013.47 1013.64 1013.81 1013.97 1014.08 1014.15 1014.16 1014.09 1013.95 1013.73 1013.46 1013.15 1012.82 1012.50 1012.19 1011.92 1011.70 1011.52 1011.38
1013.03 1012.95 1012.81 1012.63 1012.43 1012.25 1012.10 1012.00 1011.95 1011.95 1012.00 1012.09 1012.21 1012.34 1012.48 1012.60 1012.72 1012.81 1012.90 1012.97 1013.04 1013.11 1013.20 1013.31 1013.43 1013.55 1013.68 1013.79 1013.85 1013.86 1013.80 1013.65 1013.42 1013.11 1012.72 1012.30 1011.85 1011.41 1010.99 1010.63 1010.33 1010.08 1009.90
1013.21 1013.22 1013.17 1013.08 1012.97 1012.87 1012.77 1012.71 1012.68 1012.68 1012.72 1012.78 1012.85 1012.93 1013.01 1013.07 1013.11 1013.14 1013.14 1013.14 1013.14 1013.15 1013.18 1013.22 1013.28 1013.36 1013.43 1013.47 1013.48 1013.42 1013.28 1013.04 1012.71 1012.29 1011.80 1011.26 1010.70 1010.16 1009.67 1009.23 1008.87 1008.60 1008.40
1013.35 1013.42 1013.45 1013.45 1013.42 1013.38 1013.34 1013.31 1013.29 1013.28 1013.29 1013.31 1013.33 1013.34 1013.34 1013.33 1013.30 1013.24 1013.18 1013.11 1013.05 1012.99 1012.96 1012.95 1012.95 1012.97 1012.98 1012.96 1012.89 1012.75 1012.52 1012.19 1011.76 1011.24 1010.66 1010.03 1009.40 1008.79 1008.24 1007.77 1007.39 1007.12 1006.94
Thickness
5737 5736 5736 5737 5738 5738 5737 5737 5736 5736 5736 5735 5733 5730 5729 5729 5727 5724 5720 5718 5717 5715 5714 5715 5710 5711 5711 5709 5709 5708 5707 5707 5706 5707 5708 5710 5711 5709 5708 5708 5708 5707 5706
5735 5734 5734 5736 5736 5736 5736 5736 5736 5736 5736 5735 5733 5731 5730 5729 5727 5723 5719 5718 5716 5714 5714 5711 5712 5710 5708 5706 5705 5704 5706 5705 5704 5704 5704 5703 5704 5704 5707 5706 5705 5704 5704
5738 5735 5735 5736 5737 5737 5738 5738 5737 5736 5736 5735 5733 5730 5727 5726 5724 5721 5720 5718 5716 5714 5712 5710 5711 5709 5710 5707 5704 5703 5701 5702 5703 5702 5701 5700 5699 5701 5703 5701 5701 5700 5700
5745 5742 5739 5739 5739 5740 5740 5738 5737 5736 5735 5734 5734 5731 5728 5726 5725 5724 5722 5718 5715 5714 5712 5710 5709 5708 5709 5705 5705 5703 5702 5699 5702 5701 5699 5698 5696 5693 5696 5699 5699 5698 5697
5750 5747 5745 5744 5744 5743 5742 5740 5738 5736 5735 5735 5734 5730 5730 5728 5727 5725 5721 5719 5717 5714 5712 5710 5709 5707 5707 5704 5702 5700 5700 5700 5699 5699 5698 5696 5694 5693 5691 5691 5692 5696 5697
5756 5753 5751 5748 5746 5746 5744 5742 5738 5735 5735 5734 5734 5731 5729 5727 5725 5722 5721 5719 5719 5716 5713 5711 5709 5707 5707 5703 5701 5699 5698 5697 5695 5695 5696 5694 5693 5691 5689 5687 5687 5689 5693
5759 5755 5752 5750 5749 5747 5746 5743 5739 5736 5736 5734 5733 5731 5729 5726 5723 5723 5722 5721 5721 5718 5714 5713 5709 5708 5705 5702 5700 5698 5698 5696 5693 5691 5692 5692 5690 5688 5686 5684 5684 5683 5688
5762 5759 5757 5754 5752 5750 5748 5745 5742 5739 5737 5735 5733 5732 5729 5729 5728 5725 5726 5723 5722 5721 5716 5712 5709 5707 5704 5702 5699 5700 5697 5694 5691 5690 5687 5687 5688 5686 5683 5681 5678 5678 5682
5766 5764 5761 5759 5757 5754 5751 5749 5744 5741 5739 5737 5734 5732 5730 5729 5729 5725 5723 5724 5721 5720 5715 5712 5709 5706 5703 5700 5698 5698 5694 5692 5690 5690 5687 5684 5685 5682 5681 5678 5676 5672 5670
5770 5768 5766 5764 5762 5759 5755 5752 5748 5744 5741 5739 5736 5734 5731 5729 5727 5725 5723 5722 5719 5717 5714 5711 5708 5705 5702 5699 5696 5695 5693 5689 5687 5685 5682 5680 5682 5680 5677 5675 5673 5670 5667
5774 5772 5769 5767 5765 5762 5758 5753 5749 5745 5743 5741 5738 5735 5732 5730 5727 5724 5722 5720 5717 5714 5712 5709 5707 5704 5701 5697 5694 5694 5691 5687 5685 5683 5680 5677 5675 5675 5674 5672 5669 5667 5664
5778 5776 5773 5769 5765 5762 5760 5755 5752 5748 5746 5743 5739 5735 5732 5730 5727 5724 5722 5719 5716 5713 5710 5708 5705 5702 5700 5696 5693 5690 5688 5685 5682 5680 5678 5675 5674 5670 5668 5666 5665 5663 5660
5778 5777 5774 5769 5766 5763 5761 5758 5755 5752 5749 5745 5740 5736 5732 5729 5726 5724 5721 5718 5715 5712 5709 5705 5702 5700 5697 5694 5691 5688 5685 5683 5680 5678 5675 5672 5669 5665 5665 5661 5660 5660 5658
5776 5775 5772 5769 5767 5764 5762 5759 5757 5755 5751 5747 5741 5736 5733 5730 5727 5723 5720 5717 5714 5710 5707 5703 5700 5697 5694 5691 5689 5685 5682 5679 5677 5674 5671 5669 5666 5662 5659 5657 5654 5652 5651
5772 5771 5770 5769 5766 5764 5761 5759 5757 5755 5751 5746 5742 5738 5734 5730 5725 5721 5718 5715 5711 5708 5704 5701 5697 5694 5692 5690 5686 5682 5679 5675 5673 5671 5668 5666 5663 5659 5655 5653 5652 5648 5646
5769 5769 5768 5767 5764 5762 5760 5758 5755 5753 5749 5743 5740 5738 5733 5727 5723 5719 5715 5711 5708 5705 5701 5698 5694 5692 5690 5686 5680 5676 5675 5672 5669 5667 5665 5663 5658 5654 5648 5645 5642 5639 5638
5763 5764 5765 5764 5762 5761 5759 5755 5753 5750 5744 5740 5737 5734 5730 5725 5720 5717 5712 5708 5704 5701 5697 5694 5691 5688 5685 5680 5674 5668 5666 5667 5666 5663 5660 5659 5660 5653 5650 5644 5637 5634 5630
5756 5757 5759 5759 5759 5758 5756 5753 5750 5745 5740 5735 5732 5729 5725 5721 5716 5712 5708 5704 5701 5697 5693 5690 5688 5684 5681 5675 5669 5663 5660 5661 5661 5659 5657 5654 5652 5651 5646 5643 5640 5637 5634
5747 5749 5751 5752 5751 5750 5748 5745 5742 5738 5733 5730 5727 5724 5720 5716 5711 5706 5702 5699 5695 5692 5689 5686 5683 5679 5676 5670 5664 5657 5657 5658 5657 5656 5655 5652 5649 5646 5639 5635 5633 5632 5632
5735 5737 5740 5740 5739 5739 5739 5734 5731 5728 5725 5723 5720 5717 5713 5708 5704 5700 5696 5693 5689 5686 5683 5681 5678 5675 5671 5666 5658 5651 5653 5654 5654 5654 5652 5648 5644 5641 5634 5630 5628 5627 5627
5722 5723 5723 5722 5722 5723 5723 5720 5718 5715 5715 5714 5711 5708 5703 5698 5695 5691 5687 5684 5681 5678 5675 5673 5671 5668 5665 5660 5653 5646 5645 5647 5648 5648 5649 5649 5643 5634 5628 5623 5623 5623 5620
5707 5708 5707 5705 5705 5707 5706 5703 5700 5701 5701 5700 5698 5695 5692 5690 5686 5681 5678 5675 5671 5668 5667 5664 5662 5661 5658 5653 5648 5641 5636 5635 5636 5638 5640 5640 5634 5628 5622 5618 5617 5613 5607
5692 5694 5692 5690 5690 5690 5690 5687 5686 5687 5686 5685 5683 5681 5680 5677 5675 5671 5668 5664 5661 5660 5659 5657 5655 5654 5652 5647 5640 5635 5629 5625 5623 5628 5628 5624 5619 5615 5613 5610 5608 5603 5600
5679 5680 5679 5677 5675 5675 5674 5673 5672 5672 5671 5669 5669 5669 5668 5665 5663 5659 5658 5656 5654 5652 5650 5647 5645 5643 5640 5637 5634 5629 5624 5617 5614 5615 5616 5612 5609 5606 5604 5605 5602 5599 5600
5665 5665 5665 5663 5661 5660 5658 5659 5659 5657 5657 5656 5656 5656 5656 5653 5649 5647 5644 5643 5640 5638 5634 5633 5631 5628 5625 5622 5614 5610 5610 5608 5605 5601 5602 5605 5606 5606 5605 5604 5603 5601 5599
5653 5652 5652 5650 5648 5647 5646 5645 5645 5644 5644 5644 5644 5644 5643 5640 5639 5636 5633 5628 5624 5621 5617 5613 5610 5610 5606 5602 5597 5593 5589 5585 5581 5580 5589 5594 5596 5597 5598 5597 5597 5596 5593